Pasco, WA
on Sunday, December 9, 2012

Sunday
Previous Day Next Day
Daily Summary
 ActualAverageRecord
Temperature
Mean Temperature °F 34°F  
Max Temperature 41°F 41°F 57°F (1993)
Min Temperature 30°F 27°F 2°F (2009)
Degree Days
Heating Degree Days 29 31  
Month to date heating degree days 175 272  
Since 1 July heating degree days 1272 1501  
Cooling Degree Days 0 0  
Month to date cooling degree days 0 0  
Year to date cooling degree days 788 710  
Moisture
Dew Point 32°F   
Average Humidity 90    
Maximum Humidity 100    
Minimum Humidity 79    
Precipitation
Precipitation T in 0.03 in 0.35 in (1955)
Month to date precipitation 0.27 0.27  
Year to date precipitation 8.83 7.89  
Snow
Snow 0.00 in in in ()
Snow Depth 0.00 in   
Wind
Wind Speed 2 mph   
Max Wind Speed 12 mph   
Max Gust Speed 13 mph   
Visibility 10 miles   
Events Snow   

Key: T is trace of precipitation, MM is missing value
Source: NWS Daily Summary
Time(PST)TemperatureDew PointHumidity Pressure Visibility Wind DirectionWind SpeedGust SpeedPrecipitationEvents Conditions
12:53 AM 30.9°F 30.0°F 96% 30.38 in 10.0 miles Calm Calm - N/A   Partly Cloudy
1:53 AM 30.9°F 28.9°F 92% 30.39 in 10.0 miles North 3.5 mph - N/A   Clear
2:53 AM 30.9°F 30.0°F 96% 30.40 in 10.0 miles Calm Calm - N/A   Clear
3:53 AM 30.9°F 28.9°F 92% 30.43 in 10.0 miles North 3.5 mph - N/A   Clear
4:53 AM 32.0°F 28.9°F 88% 30.43 in 10.0 miles Calm Calm - N/A   Clear
5:53 AM 30.0°F 28.0°F 92% 30.44 in 10.0 miles Calm Calm - N/A   Clear
6:53 AM 30.0°F 28.0°F 92% 30.45 in 10.0 miles NNE 3.5 mph - N/A   Scattered Clouds
7:53 AM 30.9°F 28.9°F 92% 30.46 in 10.0 miles Calm Calm - N/A   Scattered Clouds
8:53 AM 33.1°F 30.0°F 89% 30.45 in 10.0 miles Calm Calm - N/A   Overcast
9:53 AM 35.1°F 32.0°F 89% 30.45 in 10.0 miles Calm Calm - N/A   Overcast
10:53 AM 36.0°F 32.0°F 86% 30.43 in 10.0 miles Calm Calm - 0.00 in   Overcast
11:53 AM 37.0°F 33.1°F 86% 30.41 in 10.0 miles East 8.1 mph - 0.00 in Snow Light Snow
12:53 PM 39.0°F 33.1°F 79% 30.37 in 9.0 miles SE 8.1 mph - 0.00 in   Unknown
1:53 PM 41.0°F 33.1°F 73% 30.37 in 10.0 miles SE 5.8 mph - 0.00 in   Overcast
2:53 PM 39.9°F 35.1°F 83% 30.32 in 10.0 miles SE 10.4 mph - 0.00 in   Overcast
3:53 PM 41.0°F 35.1°F 79% 30.33 in 10.0 miles SE 3.5 mph - 0.00 in   Overcast
4:53 PM 39.0°F 35.1°F 86% 30.28 in 10.0 miles SSE 4.6 mph - N/A   Clear
5:53 PM 35.1°F 33.1°F 92% 30.28 in 10.0 miles Calm Calm - N/A   Scattered Clouds
6:53 PM 37.9°F 35.1°F 89% 30.26 in 10.0 miles South 4.6 mph - N/A   Overcast
7:53 PM 37.9°F 35.1°F 89% 30.25 in 10.0 miles Calm Calm - N/A   Overcast
8:53 PM 37.0°F 35.1°F 93% 30.25 in 10.0 miles Calm Calm - N/A   Overcast
9:53 PM 36.0°F 34.0°F 93% 30.22 in 10.0 miles Calm Calm - 0.00 in   Clear
10:53 PM 33.1°F 32.0°F 96% 30.25 in 10.0 miles NNW 4.6 mph - 0.00 in   Clear
11:53 PM 33.1°F 32.0°F 96% 30.26 in 10.0 miles Calm Calm - 0.00 in   Clear
Moon Phase
Dec. 09 Dec. 13 Dec. 20 Dec. 28 Jan. 04
Sunrise:07:28 AM (PST) Moon Rise:02:56 AM (PST)12/9
Sunset:04:10 PM (PST) Moon Set:01:29 PM (PST)12/9

Copyright © 2014 The Weather Underground, Inc.